Ekspress AMU-1

operational
NORAD ID: 41191 Int'l Des: 2015-082 Owner: KS Country: RU
HEOCIRCULARGSOGEO

About Ekspress AMU-1

Description loading...

Live Position

Loading 3D Globe...

Upcoming Passes

Altitude History

Altitude vs Time

uPlot chart will show altitude changes over time

Two-Line Element Set

1 41191U 15082A 25338.72177595 .00000170 00000-0 00000+0 0 9993
2 41191 0.0124 297.1838 0003145 316.4588 116.1049 1.00271289 36316
Epoch: Dec 4, 2025 • Age: 10 hours

Current Status

Altitude 35787.5 km
Velocity 3.07 km/s
Sub-Earth Point -0.02°S, 36.08°E
Launch Date Dec 24, 2015
Age 9.9 years
Type other

Technical Details

Classification Payload
Mass 5700.00 kg
Dry Mass 2500.00 kg
Total Mass 5700.00 kg
Length 4.50 m
Diameter 2.80 m
Span 39.80 m
Shape Cyl + 2 Pan
Manufacturer ADST
Bus Type Eurostar 3000
Phase Status In Orbit
Owner/State KS/RU

Large Constellations

Loading constellations...